Location: Trebic
(49.2170°N, 15.8830°E)
Time: 22:02:56
(UTC+01:00)

Transit 4A - Pass Details

Date: 31 October 2020
Orbit: 862 x 982 km, 66.8° (Epoch: 30 November)

Event Time Altitude Azimuth Distance (km) Brightness Sun altitude
Rises 18:36:04 0° 299° (WNW) 3,673 12.1 -20.0°
Reaches altitude 10° 18:39:49 10° 320° (NW) 2,738 10.9 -20.6°
Maximum altitude 18:43:38 16° 357° (N) 2,328 10.0 -21.2°
Enters shadow 18:46:58 11° 30° (NNE) 2,648 10.0 -21.8°
